INTELSAT 33E DEB, 61989

Orbit data source: Space-Track

INTELSAT 33E DEB, 61989 is space debris in GEO originally from a launch on Wed, 24 Aug 2016 UTC launched from the French Guiana (FRGUI). Debris objects in space refer to the collection of defunct objects orbiting the Earth. Examples of debris include non-operational satellites, rocket bodies, and fragments generated from explosions, collisions, or faulty payload assembly.

Not visible in the next 10 days
Identifier
61989, 2016-053F
Orbit
GEO
Country
Flag of USUS / ITSO
Related business
Manufacturer
Boeing/ES
Mission
Spacecraft
Bus & Motor
Unknown
Mass
Unknown
Launch date (UTC)
2016-08-24 (10 years ago)
Launch vehicle
Unknown
Launch site
French Guiana (FRGUI)
Object type
Payload
Rocket body
Debris
Shape & HBR
Unknown shape, 1.1 m
Radar Cross Section
RCS unknown

Expand to show TLE details & history
Last TLE update: 2 days ago

TLE from 2 days ago
0 INTELSAT 33E DEB
1 61989U 16053F   26170.09032769 -.00000255  00000-0  00000-0 0  9993
2 61989   2.5446 110.0640 0401281  54.5403 308.6150  0.98059297  5866
Epoch: 2026-06-19T02:10Z
TLE epoch observation values (Epoch: 2026-06-19T02:10:04.312Z)
Latitude
0.00001°
Longitude
169.70992°
Altitude
35,389.583 km
Speed
3.126 km/s
True Right ascension
07h 18m 12s
True Declination
0° 00' 00"
Sunlit
Object was in daylight at epoch
Visualization orbit readout
Latitude
Unknown
Longitude
Unknown
Altitude
Unknown
Speed
Unknown
Apparent Right ascension
Unknown
Apparent Declination
Unknown
Sunlit
N/A
Visualization observer readout
Local Sidereal Time
07:24:31
Azimuth
Unknown
Elevation
Unknown
Doppler factor
Unknown
Orbital elements
Apogee altitude
38,136.912 km
Perigee altitude
34,702.135 km
Semi-major axis
42,797.66 km
Eccentricity
0.04013
Inclination
2.5446°
RAAN
110.064°
Arg. of periapsis
54.5403°
True anomaly
304.9087°
Mean anomaly
308.615°
Eccentric anomaly
306.77334°
Mean motion
0.24514 °/min
Orbital period
1,468.55 mins
BSTAR
0
Loading maneuver chart data...
Computing Atmospheric mass density...
Loading historical data...
Loading historical data...
Loading historical data...
Loading historical data...
Loading historical data...
Loading historical data...
Loading historical data...

Documentation

Showing up to 5 results
|